Regional Weather Roundup
Issued by NWS

Home | Current Version | Previous Version | Text Only | Print | Product List | Glossary Off
Versions: 1 2 3 4 5 6 7 8 9 10 11 12 13 14 15 16 17 18 19 20 21 22 23 24 25 26 27 28 29 30 31 32 33 34 35 36 37 38 39 40 41 42 43 44 45 46 47 48 49 50

000
ASUS43 KMKX 242200
RWRWI

WISCONSIN REGIONAL WEATHER ROUNDUP
NATIONAL WEATHER SERVICE MILWAUKEE/SULLIVAN WI
400 PM CST WED DEC 24 2014

NOTE: "FAIR" INDICATES FEW OR NO CLOUDS BELOW 12,000 FEET WITH NO
SIGNIFICANT WEATHER AND/OR OBSTRUCTIONS TO VISIBILITY.

WIZ001-002-006>008-014>016-023>028-242300-
NORTHWEST WISCONSIN

CITY           SKY/WX    TMP DP  RH WIND       PRES   REMARKS
SUPERIOR ARPT  CLOUDY    35  31  87 W7        29.60F WCI  29
ASHLAND        CLOUDY    33  32  96 CALM      29.59S
HAYWARD        CLOUDY    33  29  85 NW6       29.58R WCI  28
SIREN          CLOUDY    35  31  87 NW6       29.61S WCI  30
CUMBERLAND     CLOUDY    32  30  93 NW8       29.59R WCI  25
RICE LAKE      CLOUDY    35  30  83 W5        29.60S WCI  31
CHETEK         CLOUDY    34  31  88 NW3       29.58S
LADYSMITH      CLOUDY    35  31  87 NW7       29.57F WCI  29
EAU CLAIRE     NOT AVBL
MENOMONIE      CLOUDY    37  31  81 W9        29.60S WCI  30
NEW RICHMOND   CLOUDY    34  33  94 NW7       29.62S WCI  28
OSCEOLA        CLOUDY    36  34  94 W7        29.65S WCI  30
$$

WIZ003>005-009-010-017-018-242300-
NORTH CENTRAL WISCONSIN

CITY           SKY/WX    TMP DP  RH WIND       PRES   REMARKS
MANITOWISH WTR LGT SNOW  30  30 100 NW5       29.52S WCI  25
ARBOR VITAE    LGT SNOW  32  30  92 N6        29.52S WCI  26
WOODRUFF       LGT SNOW  32  30  92 N6        29.52S WCI  26
RHINELANDER    CLOUDY    30  28  92 N6        29.51S WCI  24
EAGLE RIVER    CLOUDY    30  29  96 NW6       29.50S WCI  24
LAND O LAKES   CLOUDY    31  29  94 N6        29.51S WCI  25
PHILLIPS       CLOUDY    32  29  90 NW6       29.54S WCI  26
TOMAHAWK       CLOUDY    31  29  91 CALM      29.52S
MEDFORD        CLOUDY    32  28  86 NW9       29.54R WCI  24
MERRILL        CLOUDY    32  30  94 N7        29.52R WCI  26
$$

WIZ029-030-035-036-043>047-242300-
CENTRAL WISCONSIN

CITY           SKY/WX    TMP DP  RH WIND       PRES   REMARKS
WAUSAU         CLOUDY    33  29  85 N8        29.50S WCI  26
MOSINEE        CLOUDY    34  34 100 NW8       29.52  WCI  27
MARSHFIELD     CLOUDY    34  29  82 NW12      29.52S WCI  25
STEVENS POINT  LGT RAIN  32  31  96 NW6       29.52R WCI  26
WAUPACA        CLOUDY    36  35  96 NW6       29.50S WCI  31
WAUTOMA        NOT AVBL
WISC RAPIDS    CLOUDY    34  30  85 NW8       29.54R WCI  27
CAMP DOUGLAS   CLOUDY    34  34 100 NW8       29.55R WCI  27
$$

WIZ011>013-019>022-031-037>040-048>050-242300-
NORTHEAST WISCONSIN

CITY           SKY/WX    TMP DP  RH WIND       PRES   REMARKS
ANTIGO         LGT SNOW  31  30  96 NW8       29.49R WCI  24
SHAWANO        CLOUDY    36  35  96 N5        29.49S WCI  32
OCONTO         CLOUDY    34  34 100 N5        29.48S WCI  30
STURGEON BAY   CLOUDY    36  32  87 N12       29.47F VSB 3/4 WCI  27
GREEN BAY      CLOUDY    35  34  96 N6        29.48S FOG     WCI  30
MANITOWOC      NOT AVBL
APPLETON       FOG       34  34 100 NW6       29.49R VSB 1   WCI  29
CLINTONVILLE   CLOUDY    34  34 100 NW7       29.49S WCI  28
OSHKOSH        CLOUDY    35  33  92 NW8       29.49R FOG     WCI  29
$$

WIZ032>034-041-042-053>061-242300-
SOUTHWEST WISCONSIN

CITY           SKY/WX    TMP DP  RH WIND       PRES   REMARKS
LA CROSSE      CLOUDY    37  31  78 NW9       29.58S WCI  30
SPARTA         CLOUDY    35  32  87 NW7       29.58S WCI  29
VIROQUA        CLOUDY    33  33 100 NW8       29.55S WCI  26
BOSCOBEL       CLOUDY    37  31  78 NW5       29.59R WCI  33
PRAIRIE DU CHI CLOUDY    37  31  80 NW8       29.59R WCI  30
PLATTEVILLE    CLOUDY    34  32  92 NW12      29.56S WCI  26
$$

WIZ056-057-062-063-064-067-068-242300-
SOUTH CENTRAL WISCONSIN

CITY           SKY/WX    TMP DP  RH WIND       PRES   REMARKS
REEDSBURG      DRIZZLE   34  33  96 NW6       29.54R WCI  28
BARABOO/DELLS  CLOUDY    33  32  98 NW7       29.52S WCI  27
LONE ROCK      NOT AVBL
MINERAL POINT  CLOUDY    34  34 100 NW12G18   29.53S WCI  25
MADISON        CLOUDY    35  32  88 NW8       29.51R WCI  29
MIDDLETON      CLOUDY    36  35  99 NW8       29.52R WCI  29
WATERTOWN      CLOUDY    35  35 100 W7        29.49S WCI  29
MONROE         LGT RAIN  34  34 100 NW8       29.51S WCI  27
JANESVILLE     LGT RAIN  37  36  93 W8        29.50S WCI  31
$$

WIZ051-052-058>065-066-070>072-242300-
SOUTHEAST WISCONSIN

CITY           SKY/WX    TMP DP  RH WIND       PRES   REMARKS
MILWAUKEE      CLOUDY    39  33  79 NW8       29.48R WCI  33
WAUKESHA       CLOUDY    36  34  93 W12       29.48S WCI  27
MILWAUKEE/TIMM CLOUDY    37  34  87 W7        29.48S WCI  32
RACINE         CLOUDY    39  33  79 W7        29.49R WCI  34
BURLINGTON     CLOUDY    35  34  94 W9        29.49R WCI  28
KENOSHA        CLOUDY    38  35  89 W8        29.48R WCI  32
FOND DU LAC    FLURRIES  34  32  92 NW7       29.49S WCI  28
SHEBOYGAN      CLOUDY    36  34  92 NW8       29.47R FOG     WCI  30
WEST BEND      CLOUDY    36  32  87 NW8       29.47S FOG     WCI  29
JUNEAU         CLOUDY    34  33  99 NW8       29.50S FOG     WCI  27
$$

LSZ147-162-242300-
LAKE SUPERIOR

STATION/POSITION TIME  TEMP    WIND        PRES    WAVE
                       AIR SEA DIR/SP/G            HT/PER
                 (UTC) (F)     (DEG/KT/KT) (MB)    (FT/S)
DEVILS ISLAND    2000   34      20/  5/  5 1003.2F
PORT WING        2040   36      10/  5/  6 1002.7F
SAXON HARBOR     2000   33      10/  3/  4 1002.0F
$$

LMZ867-665-643>646-242300-
LAKE MICHIGAN

STATION/POSITION TIME  TEMP    WIND        PRES    WAVE
                       AIR SEA DIR/SP/G            HT/PER
                 (UTC) (F)     (DEG/KT/KT) (MB)    (FT/S)
CHAMBERS ISLAND  2040   35     340/  8/  9  998.6F
SISTER BAY       2013          340/ 15/ 18   N/A
ALGOMA LAKESHORE 2115          330/ 10/ 13   N/A
KEWAUNEE LAKESHO 2100   36     330/  6/  9  997.0F
SHEBOYGAN LAKESH 2000   38 37  340/  8/  9  998.5F
PORT WASHINGTON  2040   40     300/  5/ 10  998.6F
MILWAUKEE LAKESH 2100   39     290/  9/ 11   N/A
KENOSHA   LAKESH 2000   39     280/  8/ 10  998.3F
$$

TC  - TEMPERATURE IN CELSIUS
VSB - VISIBILITY IN STATUTE MILES
WCI - WIND CHILL INDEX
HX  - HEAT INDEX



USA.gov is the U.S. government's official web portal to all federal, state and local government web resources and services.